STARLINK-31881, 59659

Orbit data source: Space-Track

STARLINK-31881, 59659 is a payload satellite owned by SpaceX/Seattle (US) in LEO that was launched on Mon, 06 May 2024 UTC via an FALCON 9 launch vehicle from the Air Force Eastern Test Range (AFETR). Payload-class satellites include a variety of spacecraft equipped with specific instruments for various scientific and technological missions. These include communications satellites like Starlink; space stations such as the ISS; scientific satellites like the Hubble; Earth observation satellites from companies like Planet Labs, Umbra, and HawkEye 360; GPS; miniature CubeSats for education and research; and military/defense satellites.

Loading next visibility...
Identifier
59659, 2024-084F
Orbit
LEO
Country
Flag of USUS
Related business
Manufacturer
SpaceX/Seattle
Mission
Operational Commercial Communications
Bus & Motor
STARLINK V2M, Unknown motor
Mass
730 kg wet, ~700 kg dry
Launch date (UTC)
2024-05-06 (2 years ago)
Launch vehicle
FALCON 9
Launch site
Air Force Eastern Test Range (AFETR)
Object type
Payload
Rocket body
Debris
Shape & HBR
Box + 2 Pan, 17.7 m
Radar Cross Section
33.884 m², Large (>1 m²)

Expand to show TLE details & history
Last TLE update: 18 hours ago

TLE from 18 hours ago
0 STARLINK-31881
1 59659U 24084F   25348.20502624  .00000775  00000-0  37675-4 0  9996
2 59659  43.0027 160.7448 0001412 271.0248  89.0442 15.27584444 91342
Epoch: 2025-12-14T04:55Z
TLE epoch observation values (Epoch: 2025-12-14T04:55:14.267Z)
Latitude
Longitude
3.81407°
Altitude
482.795 km
Speed
7.626 km/s
True Right ascension
10h 42m 58s
True Declination
0° 00' 00"
Sunlit
Object was in daylight at epoch
Visualization orbit readout
Latitude
Unknown
Longitude
Unknown
Altitude
Unknown
Speed
Unknown
Apparent Right ascension
Unknown
Apparent Declination
Unknown
Sunlit
N/A
Visualization observer readout
Local Sidereal Time
21:45:28
Azimuth
Unknown
Elevation
Unknown
Doppler factor
Unknown
Orbital elements
Apogee altitude
485.95 km
Perigee altitude
484.011 km
Semi-major axis
6,863.118 km
Eccentricity
0.00014
Inclination
43.0027°
RAAN
160.7448°
Arg. of periapsis
271.0248°
True anomaly
89.06038°
Mean anomaly
89.0442°
Eccentric anomaly
89.05229°
Mean motion
3.81734 °/min
Orbital period
94.31 mins
BSTAR
0.000037675
Loading maneuver chart data...
Computing Atmospheric mass density...
Loading historical data...
Loading historical data...
Loading historical data...
Loading historical data...
Loading historical data...
Loading historical data...
Loading historical data...

Documentation

Showing up to 5 results
|